525  
FPUS83 KFGF 201910  
OPUFGF  
PRAIRIE TO PINES WEATHER ROUNDUP  
NATIONAL WEATHER SERVICE EASTERN NORTH DAKOTA/GRAND FORKS ND  
200 PM CDT MON MAY 20 2024  
 
**SATELLITE DATA USED TO AUGMENT SKY COVER AT AUTOMATED STATIONS**  
***** WEATHER ACROSS EASTERN NORTH DAKOTA *****  
 
CITY SKY/WX TMP DP RH WIND PRES REMARKS  
GRAND FORKS PTSUNNY 69 51 52 NW8 29.84S  
GRND FORKS AFB NOT AVBL  
GRND FORKS NWS N/A 66 53 63 NW3 29.79F  
BUXTON NOT AVBL  
DEVILS LAKE PTSUNNY 62 43 49 VRB5 29.89F  
FARGO CLOUDY 65 55 70 W6 29.85S  
WAHPETON ARPT PTSUNNY 63 61 94 W8 29.85S  

 
 
***** WEATHER ACROSS CENTRAL AND WESTERN NORTH DAKOTA *****  
 
CITY SKY/WX TMP DP RH WIND PRES REMARKS  
JAMESTOWN FAIR 65 51 60 NW8 29.89S  
BISMARCK PTSUNNY 61 43 51 N7 29.94S  
MINOT FAIR 66 40 38 NW6 29.89F  
MINOT AFB NOT AVBL  
GARRISON N/A 62 38 40 N8 29.91F  
WILLISTON NOT AVBL  
DICKINSON FAIR 61 37 41 N9 29.92F  
HETTINGER FAIR 63 36 36 N6 29.94F  

 
 
***** OTHER OBSERVATIONS NORTHEAST NORTH DAKOTA *****  
 
CITY SKY/WX TMP DP RH WIND PRES REMARKS  
WALHALLA PTSUNNY 63 45 51 NW9 29.87S  
LANGDON FAIR 61 46 59 VRB5G12 29.88F  
CAVALIER FAIR 64 46 52 N6G15 29.86S  
GRAFTON FAIR 66 48 52 N9G16 29.86S  
CANDO FAIR 63 46 55 W13 29.91S  
FORT TOTTEN N/A 65 44 47 N5 29.95S  
ROLLA FAIR 61 39 44 NW9G20 29.89S  
RUGBY NOT AVBL  
***** THE ABOVE OBSERVATIONS ARE NON NWS ARE NOT QUALITY  
CONTROLLED AND MAY MIS-REPORT RAIN FOR SNOW...  

 
 
***** OTHER OBSERVATIONS SOUTHEAST NORTH DAKOTA *****  
 
CITY SKY/WX TMP DP RH WIND PRES REMARKS  
COOPERSTOWN N/A 63 52 67 N9 29.88S  
VALLEY CITY FAIR 64 54 68 NW7 29.88S  
OAKES FAIR 64 54 68 NW9G15 29.88F  
GWINNER MOSUNNY 63 59 88 NW7G15 29.88F  
SHEYENNE NWR N/A 65 56 73 NW7 29.95S  
BUFFALO NOT AVBL  
WYNDMERE NOT AVBL  
***** THE ABOVE OBSERVATIONS ARE NON NWS ARE NOT QUALITY  
CONTROLLED AND MAY MIS-REPORT RAIN FOR SNOW...  

 
 
***** WEATHER ACROSS NORTHERN MINNESOTA *****  
 
CITY SKY/WX TMP DP RH WIND PRES REMARKS  
FLAG ISLAND PTSUNNY 59 48 67 N7 29.85R  
WARROAD CLOUDY 61 55 82 NE5 29.84S  
ROSEAU FAIR 64 52 63 CALM 29.83S  
HALLOCK FAIR 66 52 59 N12 29.84S  
THF RVR FALLS CLOUDY 64 54 69 W9 29.84S  
HALSTAD NOT AVBL  
FOSSTON FAIR 64 52 63 S6 29.83F  
BAUDETTE PTSUNNY 70 52 52 NE3 29.82S  
WASKISH FAIR 66 54 63 W5 29.81F  
CROOKSTON FAIR 64 48 55 W6 29.85S  

 
***** WEATHER ACROSS CENTRAL AND WEST MINNESOTA *****  
 
CITY SKY/WX TMP DP RH WIND PRES REMARKS  
BEMIDJI CLOUDY 67 54 61 W14 29.82S  
PARK RAPIDS PTSUNNY 66 56 70 W9 29.84R  
WADENA CLOUDY 64 57 77 NW5 29.84S  
DETROIT LAKES CLOUDY 61 55 82 NW10 29.85F  
MOORHEAD PTSUNNY 63 55 77 SW6 29.86F  
FERGUS FALLS PTSUNNY 63 61 94 NW13 29.85F  
ELBOW LAKE CLOUDY 65 56 74 NW9 29.86F  
MORRIS MN CLOUDY 66 59 77 N14 29.83R  
STAPLES CLOUDY 66 57 72 W9 29.85R  
WHEATON PTSUNNY 63 55 77 NW12G17 29.87F  

 
***** WEATHER ELSEWHERE ACROSS MINNESOTA *****  
 
CITY SKY/WX TMP DP RH WIND PRES REMARKS  
DULUTH CLOUDY 60 52 74 VRB3 29.84R  
INTRNTL FALLS CLOUDY 65 51 60 N5 29.82S  
ELY CLOUDY 55 55 100 CALM 29.86R  
CLOQUET CLOUDY 61 52 72 CALM 29.83S  
BRAINERD CLOUDY 70 56 61 NW7 29.83R  
HIBBING CLOUDY 59 55 87 E6 29.83S  
ALEXANDRIA CLOUDY 67 56 67 NW12 29.86R  
SAINT CLOUD NOT AVBL  
MINNEAPOLIS PTSUNNY 75 61 61 CALM 29.78F  

 
 
***** WEATHER ACROSS SOUTH DAKOTA *****  
 
CITY SKY/WX TMP DP RH WIND PRES REMARKS  
SIOUX FALLS FAIR 74 62 66 NW17G26 29.80F  
BROOKINGS FAIR 66 57 72 N21G29 29.84F  
WATERTOWN FAIR 65 56 72 N16 29.85F  
HURON PTSUNNY 63 53 70 N17G26 29.87S  
SISSETON N/A 60 55 83 NW8 29.85F  
ABERDEEN FAIR 66 49 54 N6 29.88F  
MITCHELL PTSUNNY 68 53 58 N21 29.88F  
PIERRE FAIR 61 45 55 NW8 29.91F  
MOBRIDGE FAIR 63 45 51 N13 29.91F  
RAPID CITY PTSUNNY 58 39 49 N10G24 29.97R  

 
 
***** SOME WEATHER IN NEARBY STATES *****  
 
CITY SKY/WX TMP DP RH WIND PRES REMARKS  
GLASGOW MT PTSUNNY 57 38 48 CALM 29.95F  
GREAT FALLS MT CLOUDY 54 31 41 VRB6 29.98F  
CHEYENNE WY FAIR 63 39 41 S15G28 29.91F  
SCOTTSBLUFF NE FAIR 65 39 38 E13G23 29.90F  
OMAHA NE FAIR 81 62 52 SW6 29.78F  
DES MOINES IA FAIR 80 66 62 S10 29.82F  
DAVENPORT IA FAIR 81 61 50 W15G23 29.84F  
CHICAGO IL TSTM 82 64 54 S24G38 29.79F  
EAU CLAIRE WI CLOUDY 71 61 70 S6 29.80F  
LA CROSSE WI PTSUNNY 71 60 68 W7 29.81F  

 
 
***** SOME NATIONAL WEATHER *****  
 
CITY SKY/WX TMP DP RH WIND PRES REMARKS  
LA GUARDIA NY PTSUNNY 70 54 56 S10G17 30.02S  
RALEIGH NC PTSUNNY 78 60 53 NE9 30.02S  
ATLANTA GA FAIR 82 58 43 E7 30.01F  
NEW ORLEANS LA FAIR 88 70 55 NE10 29.92F HX 93  
OKLAHOMA CITY FAIR 86 66 51 S21G32 29.76F  
ALBUQUERQUE NM PTSUNNY 78 18 10 W6 29.99F  
SALT LAKE CITY RAIN 50 45 83 N10 29.93S  
LOS ANGELES CA CLOUDY 62 54 74 W12 30.01F  
BOISE ID FAIR 65 26 23 NW18G31 30.00F  
SEATTLE WA PTSUNNY 57 43 59 W10 30.28S  

 
 
*** WEATHER ACROSS MANITOBA...SASKATCHEWAN AND ONTARIO ***  
***ONTARIO***  
 
CITY SKY/WX TMP DP RH WIND PRES REMARKS  
GERALDTON NOT AVBL  
THUNDER BAY LGT RAIN 59 52 77 E7 29.86S  
SIOUX LOOKOUT PTSUNNY 64 45 48 W3 29.84F  
TORONTO MOSUNNY 81 61 50 S10 29.93F  
BIG TROUT LK CLOUDY 45 37 76 W8 29.86R  
PICKLE LAKE MOSUNNY 66 39 37 W7G17 29.81F  
DRYDEN PTSUNNY 63 46 55 NW9 29.83F  
KENORA PTSUNNY 59 48 67 VRB2 29.86S  

 
*** MANITOBA***  
 
CITY SKY/WX TMP DP RH WIND PRES REMARKS  
BRANDON PTSUNNY 61 46 59 W8G17 29.87F  
DAUPHIN CLOUDY 50 46 87 E3 29.89S  
ISLAND LAKE CLOUDY 41 36 81 NW7 29.91R  
PILOT MOUND N/A 63 48 59 W12 N/A  
THE PAS SUNNY 46 36 66 NW7 29.93S  
THOMPSON CLOUDY 36 36 100 NE8 29.98R  
WINNIPEG NOT AVBL  
LYNN LAKE SUNNY 45 34 65 E9 29.99F  
CHURCHILL CLOUDY 32 28 86 NE17G24 30.09F WCI 21  
GILLAM CLOUDY 32 30 93 NE9 29.99R WCI 24  

 
***SASKATCHEWAN***  
 
CITY SKY/WX TMP DP RH WIND PRES REMARKS  
ESTEVAN MOSUNNY 61 41 48 W17G31 29.90F  
KINDERSLEY LGT RAIN 46 41 81 W16G22 29.85F  
LLOYDMINSTER PTSUNNY 43 37 81 N8 29.88S  
PRINCE ALBERT LGT RAIN 41 37 87 E5 29.89R  
REGINA PTSUNNY 57 37 47 SW15G23 29.89S  
YORKTON CLOUDY 54 45 71 E3 29.85S  
 
CLICK HERE TO GO TO PREVIOUS BULLETINS.

The Nexlab ND Page
The Nexlab MN Page Main Text Page